Weather History for Auburn-Lewiston, ME

Change the Weather History Date:

Wednesday, February 6, 2013

  Actual Average Record
Temperature  
Mean Temperature 22 °F -  
Max Temperature 33 °F 29 °F 46 °F (2005)
Min Temperature 12 °F 10 °F -5 °F (2009)
Degree Days  
Heating Degree Days 42    
Moisture  
Dew Point 6 °F    
Average Humidity 53    
Maximum Humidity 79    
Minimum Humidity 28    
Precipitation  
Precipitation 0.00 in - - ()
Sea Level Pressure  
Sea Level Pressure 30.00 in    
Wind  
Wind Speed 5 mph (NW)    
Max Wind Speed 17 mph    
Max Gust Speed 23 mph    
Visibility 10 miles    
Events      
Averages and records for this station are not official NWS values.
T = Trace of Precipitation, MM = Missing Value Source: NWS Daily Summary

Daily Weather History Graph

Daily Weather History Graph

Search for Another Location

Airport:

Trip Planner

Search our weather history database for the weather conditions in past years. The results will help you decide how hot, cold, wet, or windy it might be!

Date:

Astronomy

Feb. 06, 2013 Rise Set
Actual Time 6:52 AM EST 4:58 PM EST
Civil Twilight 6:22 AM EST 5:28 PM EST
Nautical Twilight 5:47 AM EST 6:03 PM EST
Astronomical Twilight 5:14 AM EST 6:36 PM EST
Moon 3:37 AM EST (2/6) 1:09 PM EST (2/6)
Length of Visible Light 11h 06m
Length of Day
10h 06m
Waning Crescent, 17% of the Moon is Illuminated
Feb 6
Waning Crescent
Feb 10
New
Feb 17
First Quarter
Feb 25
Full
Mar 4
Last Quarter

Hourly Weather History & Observations

Time (EST) Temp. Windchill Dew Point Humidity Pressure Visibility Wind Dir Wind Speed Gust Speed Precip Events Conditions
12:15 AM 14.0 °F 8.2 °F 5.0 °F 67% 29.95 in 10.0 mi North 3.5 mph - N/A   Partly Cloudy
12:35 AM 12.2 °F - 5.0 °F 73% 29.95 in 10.0 mi Calm Calm - N/A   Mostly Cloudy
12:55 AM 14.0 °F - 5.0 °F 67% 29.95 in 10.0 mi Calm Calm - N/A   Overcast
1:15 AM 14.0 °F - 6.8 °F 73% 29.94 in 10.0 mi Calm Calm - N/A   Overcast
1:35 AM 14.0 °F - 5.0 °F 67% 29.94 in 10.0 mi Calm Calm - N/A   Overcast
2:15 AM 12.2 °F - 6.8 °F 79% 29.93 in 10.0 mi Calm Calm - N/A   Overcast
2:36 AM 15.8 °F 10.2 °F 6.8 °F 68% 29.93 in 10.0 mi NNW 3.5 mph - N/A   Overcast
3:15 AM 15.8 °F 10.2 °F 3.2 °F 58% 29.93 in 10.0 mi NNW 3.5 mph - N/A   Overcast
3:36 AM 15.8 °F - 5.0 °F 62% 29.93 in 10.0 mi Calm Calm - N/A   Overcast
3:55 AM 15.8 °F - 6.8 °F 68% 29.93 in 10.0 mi Calm Calm - N/A   Overcast
4:15 AM 15.8 °F - 3.2 °F 58% 29.93 in 10.0 mi Calm Calm - N/A   Overcast
4:35 AM 15.8 °F - 3.2 °F 58% 29.93 in 10.0 mi Calm Calm - N/A   Overcast
4:55 AM 15.8 °F - 5.0 °F 62% 29.93 in 10.0 mi Calm Calm - N/A   Overcast
5:15 AM 15.8 °F 10.2 °F 5.0 °F 62% 29.93 in 10.0 mi North 3.5 mph - N/A   Overcast
5:35 AM 15.8 °F 10.2 °F 6.8 °F 68% 29.93 in 10.0 mi NNW 3.5 mph - N/A   Overcast
5:55 AM 15.8 °F 10.2 °F 5.0 °F 62% 29.94 in 10.0 mi NW 3.5 mph - N/A   Overcast
6:15 AM 15.8 °F 10.2 °F 6.8 °F 68% 29.94 in 10.0 mi NNW 3.5 mph - N/A   Overcast
6:35 AM 15.8 °F - 6.8 °F 68% 29.94 in 10.0 mi Calm Calm - N/A   Overcast
7:15 AM 15.8 °F - 6.8 °F 68% 29.95 in 10.0 mi Calm Calm - N/A   Overcast
7:35 AM 17.6 °F - 6.8 °F 63% 29.96 in 10.0 mi Calm Calm - N/A   Overcast
7:55 AM 17.6 °F - 6.8 °F 63% 29.96 in 10.0 mi Calm Calm - N/A   Overcast
8:15 AM 17.6 °F - 8.6 °F 68% 29.95 in 10.0 mi Calm Calm - N/A   Overcast
8:35 AM 17.6 °F - 6.8 °F 63% 29.96 in 10.0 mi Calm Calm - N/A   Overcast
8:55 AM 17.6 °F - 8.6 °F 68% 29.95 in 10.0 mi Calm Calm - N/A   Overcast
9:15 AM 17.6 °F - 8.6 °F 68% 29.95 in 10.0 mi Calm Calm - N/A   Overcast
9:35 AM 19.4 °F - 10.4 °F 68% 29.95 in 10.0 mi Calm Calm - N/A   Overcast
10:15 AM 21.2 °F 16.4 °F 10.4 °F 63% 29.95 in 10.0 mi SSE 3.5 mph - N/A   Overcast
10:35 AM 24.8 °F - 14.0 °F 64% 29.94 in 10.0 mi Calm Calm - N/A   Overcast
10:55 AM 24.8 °F 20.5 °F 14.0 °F 64% 29.93 in 10.0 mi SSW 3.5 mph - N/A   Mostly Cloudy
11:35 AM 30.2 °F 21.3 °F 19.4 °F 64% 29.91 in 10.0 mi SW 10.4 mph - N/A   Mostly Cloudy
11:55 AM 30.2 °F 20.8 °F 15.8 °F 55% 29.91 in 10.0 mi SSW 11.5 mph 18.4 mph N/A   Scattered Clouds
12:15 PM 32.0 °F 23.0 °F 15.8 °F 51% 29.90 in 10.0 mi SSW 11.5 mph - N/A   Clear
12:35 PM 33.8 °F 24.3 °F 17.6 °F 52% 29.90 in 10.0 mi WSW 13.8 mph 18.4 mph N/A   Scattered Clouds
12:55 PM 33.8 °F 25.8 °F 17.6 °F 52% 29.90 in 10.0 mi WSW 10.4 mph - N/A   Overcast
1:15 PM 33.8 °F 27.0 °F 17.6 °F 52% 29.90 in 10.0 mi West 8.1 mph - N/A   Overcast
1:35 PM 33.8 °F 28.6 °F 17.6 °F 52% 29.91 in 10.0 mi NW 5.8 mph - N/A   Overcast
1:55 PM 33.8 °F 27.7 °F 17.6 °F 52% 29.91 in 10.0 mi West 6.9 mph - N/A   Overcast
2:15 PM 33.8 °F 27.0 °F 15.8 °F 48% 29.92 in 10.0 mi West 8.1 mph 18.4 mph N/A   Mostly Cloudy
2:35 PM 33.8 °F 24.8 °F 15.8 °F 48% 29.92 in 10.0 mi West 12.7 mph 17.3 mph N/A   Scattered Clouds
2:55 PM 33.8 °F 27.7 °F 17.6 °F 52% 29.93 in 10.0 mi WSW 6.9 mph - N/A   Scattered Clouds
3:16 PM 33.8 °F 27.0 °F 15.8 °F 48% 29.94 in 10.0 mi WSW 8.1 mph - N/A   Overcast
3:35 PM 33.8 °F 23.9 °F 14.0 °F 44% 29.94 in 10.0 mi West 15.0 mph 21.9 mph N/A   Mostly Cloudy
4:15 PM 30.2 °F 21.9 °F 17.6 °F 60% 29.97 in 10.0 mi NNW 9.2 mph - N/A   Mostly Cloudy
4:35 PM 30.2 °F 20.2 °F 15.8 °F 55% 29.99 in 10.0 mi NNW 12.7 mph 17.3 mph N/A   Partly Cloudy
5:35 PM 28.4 °F 20.4 °F 8.6 °F 43% 30.03 in 10.0 mi WNW 8.1 mph - N/A   Clear
5:55 PM 28.4 °F 21.2 °F 8.6 °F 43% 30.04 in 10.0 mi NW 6.9 mph - N/A   Clear
6:15 PM 26.6 °F 16.8 °F 6.8 °F 43% 30.06 in 10.0 mi NW 10.4 mph 18.4 mph N/A   Clear
6:35 PM 26.6 °F 14.7 °F 3.2 °F 37% 30.08 in 10.0 mi NW 15.0 mph 20.7 mph N/A   Clear
6:55 PM 24.8 °F 12.9 °F 3.2 °F 40% 30.09 in 10.0 mi NNW 13.8 mph - N/A   Clear
7:15 PM 24.8 °F 14.0 °F 3.2 °F 40% 30.10 in 10.0 mi NW 11.5 mph 17.3 mph N/A   Clear
7:35 PM 24.8 °F 12.9 °F 1.4 °F 36% 30.11 in 10.0 mi NNW 13.8 mph 17.3 mph N/A   Clear
7:55 PM 23.0 °F 9.6 °F -0.4 °F 36% 30.13 in 10.0 mi NW 16.1 mph 23.0 mph N/A   Clear
8:15 PM 21.2 °F 9.5 °F -5.8 °F 30% 30.14 in 10.0 mi NW 11.5 mph 19.6 mph N/A   Clear
8:35 PM 21.2 °F 10.9 °F -7.6 °F 28% 30.15 in 10.0 mi NNW 9.2 mph 16.1 mph N/A   Clear
8:55 PM 19.4 °F 10.4 °F -7.6 °F 30% 30.17 in 10.0 mi NNW 6.9 mph - N/A   Clear
9:15 PM 19.4 °F 9.5 °F -7.6 °F 30% 30.18 in 10.0 mi NNW 8.1 mph - N/A   Clear
9:35 PM 19.4 °F 7.9 °F -7.6 °F 30% 30.19 in 10.0 mi NW 10.4 mph 16.1 mph N/A   Clear
9:55 PM 19.4 °F 7.9 °F -9.4 °F 28% 30.19 in 10.0 mi NNW 10.4 mph - N/A   Clear
10:15 PM 17.6 °F 4.3 °F -9.4 °F 30% 30.20 in 10.0 mi NNW 12.7 mph - N/A   Clear
10:35 PM 17.6 °F 3.2 °F -7.6 °F 32% 30.21 in 10.0 mi NNW 15.0 mph 20.7 mph N/A   Clear
10:55 PM 15.8 °F 0.3 °F -7.6 °F 35% 30.22 in 10.0 mi NNW 16.1 mph - N/A   Clear
11:15 PM 15.8 °F -0.2 °F -7.6 °F 35% 30.22 in 10.0 mi NNW 17.3 mph 23.0 mph N/A   Clear
11:35 PM 15.8 °F 0.3 °F -5.8 °F 38% 30.23 in 10.0 mi NNW 16.1 mph 23.0 mph N/A   Clear
11:55 PM 14.0 °F -0.8 °F -5.8 °F 41% 30.25 in 10.0 mi NW 13.8 mph 20.7 mph N/A   Clear